Flag for Austria Weather past 2 weeks in Lustenau, Vorarlberg, Austria

Now
57 °F

Partly sunny.


Feels Like: 57 °F
Forecast: 54 / 65 °F
Wind: 3 mph from East

Location: Saint Gallen-Altenrhein

Current Time: Sep 4, 2015 at 8:55:12 AM

Latest Report: Sep 4, 2015 at 8:20 AM


Visibility: N/A

Pressure: 30.04 "Hg

Humidity: 88%

Dew point: 54 °F

Location of LustenauLocation

Historic Weather in Lustenau — Graph

°F

Lustenau temperature yesterday

Maximum temperature yesterday: 63 °F (at 8:50 AM)
Minimum temperature yesterday: 57 °F (at 6:50 AM)
Average temperature yesterday: 60 °F

Past Weeks' High & Low Weather Summary

 TemperatureHumidityPressure
High88 °F (Aug 30, 5:20 PM)100% (Aug 20, 7:20 AM)30.27 "Hg (Aug 20, 7:20 AM)
Low52 °F (Aug 22, 4:20 AM)33% (Aug 30, 4:50 PM)29.71 "Hg (Aug 24, 7:50 AM)
Average66 °F76%30.04 "Hg
* Reported Aug 20 7:20 AM — Sep 4 7:20 AM, Lustenau, Weather by CustomWeather, © 2015

Note: Actual official high and low records may vary slightly from our data, if they occured in-between our weather recording intervals... More about our weather records

Advertising

Lustenau weather history for previous 24 hours

 ConditionsComfort  
Time TempWeatherWind HumidityBarometerVisibility
7:20 AM
Fri, Sep 4
55 °FPassing clouds.7 mph94%30.04 "HgN/A
6:50 AM55 °FSprinkles. Passing clouds.9 mph88%30.04 "HgN/A
6:20 AM55 °FPassing clouds.2 mph88%30.01 "HgN/A
5:50 AM55 °FSprinkles. Overcast.8 mph88%30.04 "HgN/A
5:20 AM57 °FSprinkles. Partly cloudy.10 mph82%30.04 "HgN/A
4:50 AM55 °FPassing clouds.1 mph88%30.01 "HgN/A
4:20 AM55 °FPassing clouds.1 mph88%30.01 "HgN/A
3:50 AM57 °FClear.2 mph77%30.01 "HgN/A
3:20 AM57 °FPassing clouds.3 mph77%30.01 "HgN/A
2:50 AM55 °FOvercast.2 mph88%30.01 "HgN/A
2:20 AM57 °FPartly cloudy.1 mph77%30.04 "HgN/A
1:50 AM57 °FOvercast.2 mph77%30.04 "HgN/A
1:20 AM59 °FOvercast.2 mph72%30.04 "HgN/A
12:50 AM59 °FPassing clouds.3 mph72%30.04 "HgN/A
12:20 AM59 °FPassing clouds.5 mph68%30.01 "HgN/A
11:20 PM
Thu, Sep 3
59 °FOvercast.3 mph72%30.01 "HgN/A
10:50 PM59 °FPartly cloudy.3 mph77%30.01 "HgN/A
10:20 PM59 °FLight rain. Overcast.5 mph77%30.01 "HgN/A
9:50 PM61 °FOvercast.3 mph68%30.01 "HgN/A
9:20 PM61 °FOvercast.3 mph72%30.01 "HgN/A
8:50 PM59 °FPartly sunny.1 mph77%29.98 "HgN/A
8:20 PM59 °FPartly sunny.5 mph77%29.98 "HgN/A
7:50 PM59 °FPartly sunny.5 mph88%29.98 "HgN/A
7:20 PM61 °FPartly sunny.5 mph88%29.98 "HgN/A
6:50 PM61 °FPartly sunny.5 mph88%29.98 "HgN/A
6:20 PM61 °FBroken clouds.5 mph88%29.98 "HgN/A
5:20 PM61 °FSprinkles. Partly sunny.2 mph88%29.98 "HgN/A
4:50 PM61 °FSprinkles. Partly sunny.5 mph88%29.98 "HgN/A
4:20 PM61 °FLight rain. Broken clouds.7 mph88%29.98 "Hg5 mi
3:50 PM61 °FLight rain. Broken clouds.3 mph88%29.98 "Hg5 mi
3:20 PM61 °FSprinkles. Broken clouds.2 mph88%29.98 "Hg5 mi
2:50 PM61 °FSprinkles. Broken clouds.5 mph88%29.98 "Hg5 mi
2:20 PM63 °FBroken clouds.2 mph83%29.98 "Hg5 mi
1:50 PM61 °FDrizzle. Broken clouds.6 mph88%29.98 "Hg4 mi
1:20 PM61 °FDrizzle. Broken clouds.7 mph88%29.98 "Hg4 mi
12:50 PM63 °FBroken clouds.5 mph77%29.98 "HgN/A
12:20 PM63 °FBroken clouds.6 mph83%29.98 "HgN/A
11:50 AM63 °FBroken clouds.6 mph83%29.98 "HgN/A
11:20 AM63 °FBroken clouds.9 mph77%29.98 "HgN/A
10:50 AM63 °FBroken clouds.10 mph77%29.98 "HgN/A
10:20 AM63 °FBroken clouds.8 mph83%29.98 "HgN/A
9:50 AM63 °FBroken clouds.7 mph83%29.98 "HgN/A
9:20 AM63 °FBroken clouds.9 mph77%29.98 "HgN/A
8:50 AM63 °FBroken clouds.7 mph83%29.98 "HgN/A
8:20 AM61 °FBroken clouds.5 mph83%29.98 "HgN/A
Weather by CustomWeather, © 2015

See weather overviewHow to use our weather pages